DB0RV-13 Weather Reports


Display with metric or nautical units.
time (UTC)temp
F
wind
direction
speed
MPH
gust
MPH
rain 1hr
in
rain 24hr
in
rain mn
in
humidity
%
barometer
mb
20260505205002 51 222 3.0 0.0 0.00 0.00 0.00 90 1009.0
20260505204502 51 247 4.0 0.0 0.00 0.00 0.00 90 1009.0
20260505204001 51 256 4.0 0.0 0.00 0.00 0.00 90 1009.1
20260505203502 51 243 4.0 0.0 0.00 0.00 0.00 90 1009.1
20260505203002 51 217 4.0 0.0 0.00 0.00 0.00 91 1009.1
20260505202502 51 243 5.0 0.0 0.00 0.00 0.00 90 1009.1
20260505202002 51 233 3.0 0.0 0.00 0.00 0.00 90 1009.0
20260505201502 51 227 3.0 0.0 0.00 0.00 0.00 89 1009.1
20260505201001 52 217 4.0 0.0 0.00 0.00 0.00 87 1009.0
20260505200502 52 245 3.0 0.0 0.00 0.00 0.00 86 1009.0
20260505200003 52 238 4.0 0.0 0.00 0.00 0.00 86 1009.0
20260505195502 52 227 3.0 0.0 0.00 0.00 0.00 87 1008.9
20260505195002 52 222 2.0 0.0 0.00 0.00 0.00 88 1008.9
20260505194502 52 233 2.0 0.0 0.00 0.00 0.00 89 1009.0
20260505194002 52 272 1.0 0.0 0.00 0.00 0.00 89 1009.0
20260505193502 52 214 3.0 0.0 0.00 0.00 0.00 90 1009.0
20260505193002 52 184 3.0 0.0 0.00 0.00 0.00 90 1008.8
20260505192501 52 184 3.0 0.0 0.00 0.00 0.00 89 1008.8
20260505192002 52 198 4.0 0.0 0.00 0.00 0.00 89 1008.7
20260505191501 52 198 6.0 0.0 0.00 0.00 0.00 88 1008.7
20260505191001 53 196 5.0 0.0 0.00 0.00 0.00 85 1008.7
20260505190502 53 223 6.0 0.0 0.00 0.00 0.00 81 1008.7
20260505190002 53 248 7.0 0.0 0.00 0.00 0.00 83 1008.5
20260505185502 53 248 8.0 0.0 0.00 0.00 0.00 85 1008.8
20260505185002 53 220 7.0 0.0 0.00 0.00 0.00 83 1008.6
20260505184502 53 218 4.0 0.0 0.00 0.00 0.00 82 1008.6
20260505184001 54 227 7.0 0.0 0.00 0.00 0.00 79 1008.4
20260505183502 55 242 5.0 0.0 0.00 0.00 0.00 75 1008.4
20260505183002 56 249 6.0 0.0 0.00 0.00 0.00 72 1008.2
20260505182502 57 247 6.0 0.0 0.00 0.00 0.00 70 1008.0
20260505182001 57 258 7.0 0.0 0.00 0.00 0.00 70 1008.1
20260505181502 57 281 8.0 0.0 0.00 0.00 0.00 69 1007.9
20260505181002 58 271 7.0 0.0 0.00 0.00 0.00 69 1007.7
20260505180501 58 245 6.0 0.0 0.00 0.00 0.00 69 1007.7
20260505180002 59 250 4.0 0.0 0.00 0.00 0.00 69 1007.5
20260505175501 59 251 5.0 0.0 0.00 0.00 0.00 68 1007.6
20260505175002 59 261 4.0 0.0 0.00 0.00 0.00 67 1007.4
20260505174502 59 268 4.0 0.0 0.00 0.00 0.00 66 1007.4
20260505174002 59 272 2.0 0.0 0.00 0.00 0.00 65 1007.4
20260505173501 59 276 3.0 0.0 0.00 0.00 0.00 64 1007.4
20260505173002 60 285 5.0 0.0 0.00 0.00 0.00 63 1007.4
20260505172502 60 267 2.0 0.0 0.00 0.00 0.00 61 1007.3
20260505172002 60 315 10.0 0.0 0.00 0.00 0.00 60 1007.3
20260505171502 60 285 5.0 0.0 0.00 0.00 0.00 62 1007.1
20260505171001 60 267 10.0 0.0 0.00 0.00 0.00 65 1007.2
20260505170502 60 266 7.0 0.0 0.00 0.00 0.00 69 1007.2
20260505170002 60 256 3.0 0.0 0.00 0.00 0.00 76 1007.2
20260505165502 60 216 5.0 0.0 0.00 0.00 0.00 75 1007.0
20260505165001 60 207 5.0 0.0 0.00 0.00 0.00 74 1007.0
20260505164502 60 216 6.0 0.0 0.00 0.00 0.00 74 1006.9
20260505164002 60 222 2.0 0.0 0.00 0.00 0.00 74 1007.0
20260505163502 60 203 6.0 0.0 0.00 0.00 0.00 74 1006.9
20260505163002 60 211 7.0 0.0 0.00 0.00 0.00 73 1006.9
20260505162501 61 192 4.0 0.0 0.00 0.00 0.00 72 1006.9
20260505162002 61 0 0.0 0.0 0.00 0.00 0.00 71 1007.0
20260505161501 61 249 2.0 0.0 0.00 0.00 0.00 71 1006.9
20260505161002 60 288 3.0 0.0 0.00 0.00 0.00 71 1006.9
20260505160501 60 315 2.0 0.0 0.00 0.00 0.00 69 1006.8
20260505153001 59 154 3.0 0.0 0.00 0.00 0.00 83 1006.8
20260505152502 58 127 3.0 0.0 0.00 0.00 0.00 83 1006.7
20260505152001 58 149 3.0 0.0 0.00 0.00 0.00 82 1006.8
20260505151502 58 175 3.0 0.0 0.00 0.00 0.00 83 1006.9
20260505151002 58 207 3.0 0.0 0.00 0.00 0.00 82 1007.3
20260505150501 58 236 6.0 0.0 0.00 0.00 0.00 79 1007.3
20260505140502 61 70 1.0 0.0 0.00 0.00 0.00 67 1007.2
20260505125002 59 159 4.0 0.0 0.00 0.00 0.00 71 1007.5
20260505124501 59 268 0.0 0.0 0.00 0.00 0.00 71 1007.4
20260505124001 60 191 3.0 0.0 0.00 0.00 0.00 73 1007.5
20260505123502 60 189 1.0 0.0 0.00 0.00 0.00 71 1007.6
20260505123001 59 179 2.0 0.0 0.00 0.00 0.00 73 1007.6
20260505122502 58 181 4.0 0.0 0.00 0.00 0.00 72 1007.6
20260505122002 59 165 4.0 0.0 0.00 0.00 0.00 73 1007.6
20260505121502 59 152 2.0 0.0 0.00 0.00 0.00 71 1007.6
20260505121001 59 312 2.0 0.0 0.00 0.00 0.00 71 1007.6
20260505120502 58 25 2.0 0.0 0.00 0.00 0.00 73 1007.6
20260505120001 58 38 4.0 0.0 0.00 0.00 0.00 73 1007.6
20260505115502 58 27 4.0 0.0 0.00 0.00 0.00 73 1007.8
20260505115001 57 297 0.0 0.0 0.00 0.00 0.00 76 1007.7
20260505114501 57 271 2.0 0.0 0.00 0.00 0.00 76 1007.8
20260505114002 57 323 2.0 0.0 0.00 0.00 0.00 78 1007.8
20260505113502 57 330 2.0 0.0 0.00 0.00 0.00 78 1007.9
20260505113002 57 0 0.0 0.0 0.00 0.00 0.00 79 1007.9
20260505112501 56 223 1.0 0.0 0.00 0.00 0.00 79 1008.0
20260505112002 56 200 3.0 0.0 0.00 0.00 0.00 79 1008.1
20260505111501 56 230 4.0 0.0 0.00 0.00 0.00 80 1008.1
20260505111002 56 239 3.0 0.0 0.00 0.00 0.00 78 1008.1
20260505110501 56 210 1.0 0.0 0.00 0.00 0.00 78 1008.2
20260505102001 56 215 5.0 0.0 0.00 0.00 0.00 77 1008.2
20260505101502 55 202 4.0 0.0 0.00 0.00 0.00 76 1008.1
20260505101002 56 215 5.0 0.0 0.00 0.00 0.00 76 1008.0
20260505100502 57 162 1.0 0.0 0.00 0.00 0.00 77 1008.1
20260505100002 56 244 0.0 0.0 0.00 0.00 0.00 76 1008.1
20260505095501 55 246 1.0 0.0 0.00 0.00 0.00 76 1008.0
20260505095002 55 239 2.0 0.0 0.00 0.00 0.00 76 1008.2
20260505094501 55 241 5.0 0.0 0.00 0.00 0.00 78 1008.1
20260505094002 55 243 1.0 0.0 0.00 0.00 0.00 78 1008.2
20260505093501 55 238 1.0 0.0 0.00 0.00 0.00 79 1008.3
20260505093002 54 269 5.0 0.0 0.00 0.00 0.00 77 1008.3
20260505092502 55 239 3.0 0.0 0.00 0.00 0.00 78 1008.4
20260505092002 55 259 4.0 0.0 0.00 0.00 0.00 78 1008.4
20260505091502 55 262 6.0 0.0 0.00 0.00 0.00 79 1008.3
20260505091001 55 245 3.0 0.0 0.00 0.00 0.00 79 1008.3
20260505090502 55 248 7.0 0.0 0.00 0.00 0.00 78 1008.3
20260505090001 55 244 5.0 0.0 0.00 0.00 0.00 79 1008.4
20260505085502 55 239 5.0 0.0 0.00 0.00 0.00 80 1008.3
20260505085001 54 266 4.0 0.0 0.00 0.00 0.00 79 1008.4
20260505084502 55 244 5.0 0.0 0.00 0.00 0.00 80 1008.4
20260505084001 54 246 5.0 0.0 0.00 0.00 0.00 79 1008.4
20260505083502 55 253 4.0 0.0 0.00 0.00 0.00 79 1008.5
20260505083002 55 241 3.0 0.0 0.00 0.00 0.00 80 1008.4
20260505082502 55 239 2.0 0.0 0.00 0.00 0.00 79 1008.4
20260505082002 55 247 3.0 0.0 0.00 0.00 0.00 81 1008.5
20260505081501 54 239 2.0 0.0 0.00 0.00 0.00 82 1008.4
20260505081002 53 250 5.0 0.0 0.00 0.00 0.00 82 1008.5
20260505080501 53 230 5.0 0.0 0.00 0.00 0.00 82 1008.6
20260505080002 53 251 2.0 0.0 0.00 0.00 0.00 84 1008.6
20260505075501 53 227 3.0 0.0 0.00 0.00 0.00 83 1008.6
20260505075002 53 219 4.0 0.0 0.00 0.00 0.00 84 1008.8
20260505074501 53 240 5.0 0.0 0.00 0.00 0.00 84 1008.7
20260505074001 53 216 5.0 0.0 0.00 0.00 0.00 85 1008.8
20260505073502 53 200 4.0 0.0 0.00 0.00 0.00 85 1008.8
20260505073001 53 239 5.0 0.0 0.00 0.00 0.00 84 1008.8
20260505072502 52 244 3.0 0.0 0.00 0.00 0.00 84 1008.9
20260505072001 53 244 3.0 0.0 0.00 0.00 0.00 85 1008.8
20260505071502 53 242 3.0 0.0 0.00 0.00 0.00 83 1008.9
20260505071001 53 242 2.0 0.0 0.00 0.00 0.00 82 1008.9
20260505070502 53 217 1.0 0.0 0.00 0.00 0.00 81 1008.9
20260505070001 52 349 2.0 0.0 0.00 0.00 0.00 82 1008.9
20260505065501 52 300 1.0 0.0 0.00 0.00 0.00 82 1008.9
20260505065002 51 0 0.0 0.0 0.00 0.00 0.00 83 1008.8
20260505064501 51 126 0.0 0.0 0.00 0.00 0.00 83 1009.0
20260505064002 51 118 0.0 0.0 0.00 0.00 0.00 82 1009.0
20260505063501 51 0 0.0 0.0 0.00 0.00 0.00 83 1009.0
20260505063002 50 0 0.0 0.0 0.00 0.00 0.00 83 1009.0
20260505062501 50 116 2.0 0.0 0.00 0.00 0.00 83 1009.0
20260505062002 50 122 2.0 0.0 0.00 0.00 0.00 83 1008.9
20260505061501 50 134 1.0 0.0 0.00 0.00 0.00 84 1009.0
20260505061001 49 152 2.0 0.0 0.00 0.00 0.00 83 1009.1
20260505060501 49 134 3.0 0.0 0.00 0.00 0.00 83 1009.0
20260505060001 50 132 1.0 0.0 0.00 0.00 0.00 83 1009.1
20260505055502 50 131 2.0 0.0 0.00 0.00 0.00 82 1009.2
20260505055001 50 114 1.0 0.0 0.00 0.00 0.00 83 1009.1
20260505054502 49 194 1.0 0.0 0.00 0.00 0.00 84 1009.2
20260505054001 48 160 1.0 0.0 0.00 0.00 0.00 85 1009.1
20260505053502 48 101 1.0 0.0 0.00 0.00 0.00 85 1009.1
20260505053001 48 67 1.0 0.0 0.00 0.00 0.00 86 1009.2
20260505052501 47 357 0.0 0.0 0.00 0.00 0.00 87 1009.1
20260505052001 47 26 0.0 0.0 0.00 0.00 0.00 88 1009.1
20260505051501 46 0 0.0 0.0 0.00 0.00 0.00 88 1009.1
20260505051002 46 62 1.0 0.0 0.00 0.00 0.00 88 1009.0
20260505050501 46 82 1.0 0.0 0.00 0.00 0.00 88 1009.1
20260505041502 45 36 1.0 0.0 0.00 0.00 0.00 92 1009.2
20260505041001 45 23 3.0 0.0 0.00 0.00 0.00 92 1009.2
20260505040502 45 336 2.0 0.0 0.00 0.00 0.00 91 1009.2
20260505040001 45 323 3.0 0.0 0.00 0.00 0.00 91 1009.3
20260505035502 45 327 3.0 0.0 0.00 0.00 0.00 91 1009.2
20260505035001 46 318 1.0 0.0 0.00 0.00 0.00 91 1009.3
20260505034501 45 295 1.0 0.0 0.00 0.00 0.00 89 1009.3
20260505034002 46 355 2.0 0.0 0.00 0.00 0.00 89 1009.3
20260505033502 47 54 1.0 0.0 0.00 0.00 0.00 89 1009.4
20260505033002 47 52 2.0 0.0 0.00 0.00 0.00 89 1009.3
20260505032501 47 0 0.0 0.0 0.00 0.00 0.00 88 1009.5
20260505032002 48 26 1.0 0.0 0.00 0.00 0.00 89 1009.4
20260505031502 47 0 0.0 0.0 0.00 0.00 0.00 90 1009.5
20260505031001 46 313 3.0 0.0 0.00 0.00 0.00 88 1009.5
20260505030502 46 314 2.0 0.0 0.00 0.00 0.00 88 1009.6
20260505030002 48 339 2.0 0.0 0.00 0.00 0.00 88 1009.7
20260505025501 48 42 2.0 0.0 0.00 0.00 0.00 87 1009.7
20260505025002 47 0 0.0 0.0 0.00 0.00 0.00 88 1009.8
20260505024502 48 13 2.0 0.0 0.00 0.00 0.00 88 1009.8
20260505024001 48 54 0.0 0.0 0.00 0.00 0.00 87 1009.9
20260505023502 48 148 0.0 0.0 0.00 0.00 0.00 88 1010.0
20260505023002 48 146 1.0 0.0 0.00 0.00 0.00 87 1009.9
20260505022501 48 130 1.0 0.0 0.00 0.00 0.00 87 1010.0
20260505022002 48 107 1.0 0.0 0.00 0.00 0.00 87 1010.0
20260505021502 48 29 1.0 0.0 0.00 0.00 0.00 87 1010.0
20260505021001 48 71 1.0 0.0 0.00 0.00 0.00 88 1010.0
20260505020502 48 62 3.0 0.0 0.00 0.00 0.00 88 1010.0
20260505020002 48 33 2.0 0.0 0.00 0.00 0.00 89 1010.0
20260505015501 48 345 4.0 0.0 0.00 0.00 0.00 87 1010.0
20260505015002 48 355 2.0 0.0 0.00 0.00 0.00 87 1010.0
20260505014502 47 331 2.0 0.0 0.00 0.00 0.00 85 1010.2
20260505014001 48 320 1.0 0.0 0.00 0.00 0.00 86 1010.1
20260505013502 48 331 2.0 0.0 0.00 0.00 0.00 85 1010.2
20260505013002 48 335 2.0 0.0 0.00 0.00 0.00 85 1010.4
20260505012501 48 303 1.0 0.0 0.00 0.00 0.00 83 1010.5
20260505012002 48 40 2.0 0.0 0.00 0.00 0.00 83 1010.4
20260505011502 48 60 1.0 0.0 0.00 0.00 0.00 84 1010.5
20260505011001 48 306 0.0 0.0 0.00 0.00 0.00 83 1010.6
20260505010502 48 75 3.0 0.0 0.00 0.00 0.00 84 1010.6
20260505010003 49 131 2.0 0.0 0.00 0.00 0.00 83 1010.6
20260505005501 50 71 2.0 0.0 0.00 0.00 0.00 85 1010.7
20260505005002 51 72 3.0 0.0 0.00 0.00 0.00 85 1010.6
20260505004502 51 0 0.0 0.0 0.00 0.00 0.00 87 1010.8
20260505004001 50 294 2.0 0.0 0.00 0.00 0.00 85 1011.0
20260505003502 50 344 2.0 0.0 0.00 0.00 0.00 85 1010.9
20260505003002 49 321 2.0 0.0 0.00 0.00 0.00 84 1011.1
20260505002501 50 340 3.0 0.0 0.00 0.00 0.00 83 1010.9
20260505002002 50 309 2.0 0.0 0.00 0.00 0.00 86 1011.0
20260505001502 50 297 2.0 0.0 0.00 0.00 0.00 84 1011.0
20260505001001 50 340 2.0 0.0 0.00 0.00 0.00 81 1011.0
20260505000502 51 19 3.0 0.0 0.00 0.00 0.00 81 1011.0
20260505000002 50 22 2.0 0.0 0.00 0.00 0.00 82 1010.9
20260504235501 51 135 0.0 0.0 0.00 0.00 0.00 84 1011.0
20260504235002 51 190 1.0 0.0 0.00 0.00 0.00 84 1011.0
20260504234502 52 123 2.0 0.0 0.00 0.00 0.00 84 1011.0
20260504234001 52 0 0.0 0.0 0.00 0.00 0.00 84 1011.0
20260504233502 52 103 2.0 0.0 0.00 0.00 0.00 84 1011.0
20260504233002 52 223 2.0 0.0 0.00 0.00 0.00 84 1011.0
20260504232501 52 156 0.0 0.0 0.00 0.00 0.00 84 1011.2
20260504232002 52 237 1.0 0.0 0.00 0.00 0.00 84 1011.3
20260504231502 52 201 1.0 0.0 0.00 0.00 0.00 83 1011.3
20260504231001 52 196 0.0 0.0 0.00 0.00 0.00 83 1011.2
20260504230502 52 222 1.0 0.0 0.00 0.00 0.00 83 1011.2
20260504230002 51 221 1.0 0.0 0.00 0.00 0.00 82 1011.3
20260504225501 52 244 2.0 0.0 0.00 0.00 0.00 83 1011.4
20260504225002 52 240 2.0 0.0 0.00 0.00 0.00 82 1011.4
20260504224502 52 222 2.0 0.0 0.00 0.00 0.00 82 1011.5
20260504224001 52 220 2.0 0.0 0.00 0.00 0.00 81 1011.5
20260504223502 53 217 5.0 0.0 0.00 0.00 0.00 81 1011.6
20260504223002 53 213 4.0 0.0 0.00 0.00 0.00 80 1011.6
20260504222501 53 213 5.0 0.0 0.00 0.00 0.00 80 1011.6
20260504222002 53 238 4.0 0.0 0.00 0.00 0.00 79 1011.6
20260504221502 53 238 4.0 0.0 0.00 0.00 0.00 79 1011.5
20260504221001 53 216 6.0 0.0 0.00 0.00 0.00 78 1011.6
20260504220502 54 216 5.0 0.0 0.00 0.00 0.00 77 1011.5
20260504220002 54 212 5.0 0.0 0.00 0.00 0.00 75 1011.7
20260504215501 54 219 4.0 0.0 0.00 0.00 0.00 75 1011.5
20260504215002 54 221 6.0 0.0 0.00 0.00 0.00 74 1011.7
20260504214502 54 242 3.0 0.0 0.00 0.00 0.00 73 1011.5
20260504214001 54 229 4.0 0.0 0.00 0.00 0.00 73 1011.6
20260504213501 55 226 4.0 0.0 0.00 0.00 0.00 72 1011.5
20260504213002 55 223 2.0 0.0 0.00 0.00 0.00 71 1011.6
20260504212501 55 206 6.0 0.0 0.00 0.00 0.00 70 1011.6
20260504212001 55 208 4.0 0.0 0.00 0.00 0.00 69 1011.7
20260504211502 55 232 4.0 0.0 0.00 0.00 0.00 68 1011.7
20260504211001 55 218 5.0 0.0 0.00 0.00 0.00 66 1011.7
20260504210502 56 208 6.0 0.0 0.00 0.00 0.00 61 1011.6
20260504210003 58 210 4.0 0.0 0.00 0.00 0.00 57 1011.8
20260504205501 58 297 1.0 0.0 0.00 0.00 0.00 54 1011.6